This demonstration page uses our WeatherBlox Daily Observations layout. Learn more.

Left ArrowRight Arrow

Hourly Observations for September 19, 2020

Temp ( °F °C ) Dew Point ( °F °C ) Humidity (%) Winds ( mph kmh ) Pressure ( in mb ) Visibility ( mi km ) Precip ( " mm )
12:15 am 00:15 Clear 55 13 39 4 55 55 NNE 10 17 30.22 1023 10 16 0.00 0.00
12:35 am 00:35 Clear 55 13 37 3 51 51 NNE 9 15 30.23 1024 10 16 0.00 0.00
12:55 am 00:55 Clear 55 13 36 2 47 47 NNE 10 17 30.24 1024 10 16 0.00 0.00
1:15 am 01:15 Clear 54 12 36 2 51 51 NNE 9 15 30.25 1024 10 16 0.00 0.00
1:35 am 01:35 Clear 54 12 36 2 51 51 NNE 9 15 30.26 1025 10 16 0.00 0.00
1:55 am 01:55 Clear 52 11 36 2 54 54 NNE 8 13 30.27 1025 10 16 0.00 0.00
2:15 am 02:15 Clear 52 11 34 1 50 50 NNE 9 15 30.27 1025 10 16 0.00 0.00
2:35 am 02:35 Clear 52 11 34 1 50 50 NNE 6 9 30.28 1026 10 16 0.00 0.00
2:55 am 02:55 Clear 50 10 34 1 54 54 NNE 8 13 30.29 1026 10 16 0.00 0.00
3:15 am 03:15 Clear 50 10 34 1 54 54 NNE 7 11 30.29 1026 10 16 0.00 0.00
3:35 am 03:35 Clear 50 10 34 1 54 54 N 6 9 30.29 1026 10 16 0.00 0.00
3:55 am 03:55 Clear 50 10 34 1 54 54 N 7 11 30.29 1026 10 16 0.00 0.00
4:15 am 04:15 Clear 50 10 36 2 58 58 N 6 9 30.30 1026 10 16 0.00 0.00
4:35 am 04:35 Clear 48 9 36 2 62 62 NNE 9 15 30.29 1026 10 16 0.00 0.00
4:55 am 04:55 Clear 48 9 36 2 62 62 NNE 8 13 30.30 1026 10 16 0.00 0.00
5:15 am 05:15 Clear 46 8 36 2 66 66 NNE 7 11 30.31 1026 10 16 0.00 0.00
5:35 am 05:35 Clear 46 8 36 2 66 66 N 6 9 30.32 1027 10 16 0.00 0.00
5:55 am 05:55 Clear 46 8 36 2 66 66 NNE 5 7 30.32 1027 10 16 0.00 0.00
6:15 am 06:15 Clear 46 8 36 2 66 66 N 5 7 30.32 1027 10 16 0.00 0.00
6:35 am 06:35 Clear 46 8 36 2 66 66 Calm 30.33 1027 10 16 0.00 0.00
6:55 am 06:55 Clear 46 8 36 2 66 66 N 3 6 30.34 1027 10 16 0.00 0.00
7:15 am 07:15 Sunny 43 6 36 2 76 76 N 5 7 30.35 1028 10 16 0.00 0.00
7:35 am 07:35 Sunny 45 7 37 3 76 76 N 3 6 30.36 1028 10 16 0.00 0.00
7:55 am 07:55 Sunny 46 8 37 3 71 71 N 5 7 30.37 1028 10 16 0.00 0.00
8:15 am 08:15 Sunny 50 10 37 3 62 62 NNE 7 11 30.37 1028 10 16 0.00 0.00
8:35 am 08:35 Sunny 50 10 36 2 58 58 NNE 7 11 30.38 1029 10 16 0.00 0.00
8:55 am 08:55 Sunny 52 11 36 2 54 54 NNE 8 13 30.37 1029 10 16 0.00 0.00
9:15 am 09:15 Sunny 52 11 36 2 54 54 NNE 10 17 30.38 1029 10 16 0.00 0.00
9:35 am 09:35 Sunny 52 11 36 2 54 54 NE 7 11 30.38 1029 10 16 0.00 0.00
9:55 am 09:55 Sunny 54 12 34 1 47 47 NNE 14 22 30.39 1029 10 16 0.00 0.00
10:15 am 10:15 Sunny 54 12 32 0 44 44 NNE 13 20 30.39 1029 10 16 0.00 0.00
10:35 am 10:35 Sunny 54 12 32 0 44 44 NNE 12 19 30.40 1030 10 16 0.00 0.00
10:55 am 10:55 Sunny 55 13 32 0 41 41 NNE 12 19 30.40 1030 10 16 0.00 0.00
11:15 am 11:15 Sunny 55 13 34 1 44 44 NNE 12 19 30.40 1030 10 16 0.00 0.00
11:35 am 11:35 Sunny 55 13 32 0 41 41 NE 10 17 30.40 1030 10 16 0.00 0.00
11:55 am 11:55 Sunny 57 14 34 1 41 41 NNE 9 15 30.40 1029 10 16 0.00 0.00
12:15 pm 12:15 Sunny 59 15 34 1 39 39 NNE 9 15 30.39 1029 10 16 0.00 0.00
12:35 pm 12:35 Sunny 59 15 34 1 39 39 NE 13 20 30.39 1029 10 16 0.00 0.00
12:55 pm 12:55 Sunny 59 15 34 1 39 39 NNE 8 13 30.39 1029 10 16 0.00 0.00
1:15 pm 13:15 Sunny 61 16 34 1 36 36 ENE 5 7 30.38 1029 10 16 0.00 0.00
1:35 pm 13:35 Sunny 61 16 34 1 36 36 NNE 6 9 30.37 1028 10 16 0.00 0.00
1:55 pm 13:55 Sunny 61 16 34 1 36 36 ENE 9 15 30.36 1028 10 16 0.00 0.00
2:15 pm 14:15 Sunny 61 16 32 0 34 34 NNE 10 17 30.36 1028 10 16 0.00 0.00
2:35 pm 14:35 Sunny 61 16 32 0 34 34 NE 6 9 30.35 1028 10 16 0.00 0.00
2:55 pm 14:55 Sunny 63 17 32 0 32 32 NE 7 11 30.35 1028 10 16 0.00 0.00
3:15 pm 15:15 Sunny 63 17 32 0 32 32 E 5 7 30.34 1027 10 16 0.00 0.00
3:35 pm 15:35 Sunny 63 17 32 0 32 32 NNE 8 13 30.34 1027 10 16 0.00 0.00
3:55 pm 15:55 Sunny 63 17 32 0 32 32 NNE 5 7 30.34 1027 10 16 0.00 0.00
4:15 pm 16:15 Sunny 63 17 32 0 32 32 NE 8 13 30.33 1027 10 16 0.00 0.00
4:35 pm 16:35 Sunny 63 17 32 0 32 32 NNE 7 11 30.33 1027 10 16 0.00 0.00
5:15 pm 17:15 Sunny 63 17 32 0 32 32 NE 9 15 30.32 1027 10 16 0.00 0.00
5:35 pm 17:35 Sunny 63 17 32 0 32 32 NNE 6 9 30.33 1027 10 16 0.00 0.00
5:55 pm 17:55 Sunny 63 17 32 0 32 32 NNE 6 9 30.33 1027 10 16 0.00 0.00
6:15 pm 18:15 Sunny 63 17 32 0 32 32 NE 5 7 30.33 1027 10 16 0.00 0.00
6:35 pm 18:35 Sunny 63 17 32 0 32 32 NE 6 9 30.33 1027 10 16 0.00 0.00
6:55 pm 18:55 Sunny 61 16 34 1 36 36 NE 3 6 30.33 1027 10 16 0.00 0.00
7:15 pm 19:15 Clear 61 16 32 0 34 34 NNE 3 6 30.33 1027 10 16 0.00 0.00
7:35 pm 19:35 Clear 59 15 34 1 39 39 NNE 3 6 30.34 1027 10 16 0.00 0.00
7:55 pm 19:55 Clear 55 13 37 3 51 51 Calm 30.34 1027 10 16 0.00 0.00
8:15 pm 20:15 Clear 54 12 41 5 63 63 Calm 30.35 1028 10 16 0.00 0.00
8:35 pm 20:35 Clear 52 11 41 5 67 67 NNW 3 6 30.36 1028 10 16 0.00 0.00
8:55 pm 20:55 Clear 50 10 43 6 76 76 Calm 30.37 1028 10 16 0.00 0.00
9:15 pm 21:15 Clear 50 10 43 6 76 76 Calm 30.39 1029 10 16 0.00 0.00
9:35 pm 21:35 Clear 48 9 41 5 76 76 Calm 30.39 1029 10 16 0.00 0.00
9:55 pm 21:55 Clear 46 8 41 5 82 82 NNW 3 6 30.39 1029 10 16 0.00 0.00
10:15 pm 22:15 Clear 45 7 41 5 87 87 Calm 30.39 1029 10 16 0.00 0.00
10:35 pm 22:35 Clear 46 8 43 6 87 87 Calm 30.39 1029 10 16 0.00 0.00
10:55 pm 22:55 Clear 45 7 43 6 93 93 NNW 3 6 30.39 1029 10 16 0.00 0.00
11:15 pm 23:15 Clear 45 7 41 5 87 87 Calm 30.40 1029 10 16 0.00 0.00
11:35 pm 23:35 Clear 45 7 43 6 93 93 Calm 30.40 1029 10 16 0.00 0.00
11:55 pm 23:55 Clear 43 6 43 6 100 100 Calm 30.40 1030 10 16 0.00 0.00

Powered by AerisWeather